EW4052 Weather Reports


time (UTC)temp
C
wind
direction
speed
KPH
gust
KPH
rain 1hr
cm
rain 24hr
cm
rain mn
cm
humidity
%
barometer
mb
20260507203014 16 229 8.0 27.4 0.00 0.00 0.00 33 1009.9
20260507201511 16 233 6.4 20.9 0.00 0.00 0.00 29 1010.0
20260507200011 16 262 12.9 37.0 0.00 0.00 0.00 33 1010.3
20260507194508 16 270 16.1 29.0 0.00 0.00 0.00 35 1010.4
20260507193005 16 246 14.5 30.6 0.00 0.00 0.00 30 1010.4
20260507191506 16 250 4.8 16.1 0.00 0.00 0.00 31 1010.5
20260507190005 16 249 8.0 27.4 0.00 0.00 0.00 31 1010.7
20260507184604 16 346 0.0 12.9 0.00 0.00 0.00 33 1010.6
20260507183100 15 309 8.0 12.9 0.00 0.00 0.00 38 1010.7
20260507181558 16 251 9.7 16.1 0.00 0.00 0.00 34 1010.8
20260507180054 15 318 1.6 11.3 0.00 0.00 0.00 36 1010.9
20260507174601 15 273 0.0 14.5 0.00 0.00 0.00 34 1011.1
20260507173051 15 290 0.0 6.4 0.00 0.00 0.00 33 1011.3
20260507171600 15 280 0.0 8.0 0.00 0.00 0.00 37 1011.5
20260507170050 15 345 0.0 0.0 0.00 0.00 0.00 35 1011.6
20260507164544 14 325 0.0 8.0 0.00 0.00 0.00 40 1011.7
20260507163040 13 325 0.0 11.3 0.00 0.00 0.00 42 1011.8
20260507161538 12 338 1.6 14.5 0.00 0.00 0.00 45 1011.7
20260507160033 11 355 8.0 16.1 0.00 0.00 0.00 43 1011.8
20260507154533 11 13 8.0 17.7 0.00 0.00 0.00 48 1011.9
20260507153027 10 5 9.7 19.3 0.00 0.00 0.00 47 1011.9
20260507151522 10 20 12.9 22.5 0.00 0.00 0.00 50 1011.8
20260507150020 9 10 8.0 16.1 0.00 0.00 0.00 51 1011.9
20260507144517 8 360 9.7 16.1 0.00 0.00 0.00 54 1011.9
20260507143011 8 360 8.0 12.9 0.00 0.00 0.00 55 1012.0
20260507141508 7 348 6.4 11.3 0.00 0.00 0.00 56 1012.1
20260507140006 6 348 0.0 0.0 0.00 0.00 0.00 59 1012.1
20260507134601 6 348 0.0 11.3 0.00 0.00 0.00 61 1012.1
20260507133058 5 351 6.4 0.0 0.00 0.00 0.00 63 1012.4
20260507131558 5 355 6.4 11.3 0.00 0.00 0.00 65 1012.4
20260507130109 5 331 6.4 16.1 0.00 0.00 0.00 67 1012.4
20260507124603 5 300 9.7 19.3 0.00 0.00 0.00 67 1012.7
20260507123053 5 17 0.0 1.6 0.00 0.00 0.00 65 1012.1
20260507121550 4 20 0.0 0.0 0.00 0.00 0.00 66 1011.5
20260507120049 3 20 0.0 0.0 0.00 0.00 0.00 69 1011.4
20260507114555 2 20 0.0 0.0 0.00 0.00 0.00 68 1011.4
20260507113047 2 20 0.0 0.0 0.00 0.00 0.00 68 1011.5
20260507111550 2 20 0.0 0.0 0.00 0.00 0.00 67 1011.5
20260507110044 3 20 0.0 0.0 0.00 0.00 0.00 66 1011.9
20260507104542 3 20 0.0 1.6 0.00 0.00 0.00 66 1012.1
20260507103043 3 20 0.0 0.0 0.00 0.00 0.00 65 1012.4
20260507101547 3 20 0.0 0.0 0.00 0.00 0.00 66 1012.1
20260507100043 3 20 0.0 0.0 0.00 0.00 0.00 67 1012.4
20260507094545 3 20 0.0 0.0 0.00 0.00 0.00 69 1012.3
20260507093042 3 20 0.0 0.0 0.00 0.00 0.00 66 1012.6
20260507091539 3 20 0.0 0.0 0.00 0.00 0.00 64 1012.6
20260507090036 4 20 0.0 0.0 0.00 0.00 0.00 64 1012.9
20260507084535 4 20 0.0 0.0 0.00 0.00 0.00 66 1013.3
20260507083028 4 20 0.0 0.0 0.00 0.00 0.00 66 1013.5
20260507081527 4 24 1.6 9.7 0.00 0.00 0.00 65 1013.8
20260507080024 3 355 0.0 0.0 0.00 0.00 0.00 65 1013.7
20260507074524 2 355 0.0 0.0 0.00 0.00 0.00 67 1013.8
20260507073025 2 355 0.0 0.0 0.00 0.00 0.00 67 1013.7
20260507071522 2 355 0.0 0.0 0.00 0.00 0.00 66 1013.9
20260507070020 2 355 0.0 0.0 0.00 0.00 0.00 66 1014.1
20260507064519 3 355 0.0 0.0 0.00 0.00 0.00 64 1014.1
20260507063018 3 355 0.0 0.0 0.00 0.00 0.00 64 1014.1
20260507061517 2 360 0.0 0.0 0.00 0.00 0.00 66 1014.1
20260507060023 2 360 0.0 0.0 0.00 0.00 0.00 66 1014.2
20260507054514 2 360 0.0 0.0 0.00 0.00 0.00 66 1014.4
20260507053011 2 360 0.0 0.0 0.00 0.00 0.00 65 1014.6
20260507051508 3 360 0.0 0.0 0.00 0.00 0.00 67 1014.7
20260507050006 3 360 0.0 0.0 0.00 0.00 0.00 66 1014.7
20260507044504 4 360 0.0 0.0 0.00 0.00 0.00 62 1014.8
20260507043002 5 360 0.0 0.0 0.00 0.00 0.00 60 1014.9
20260507041501 5 26 0.0 0.0 0.00 0.00 0.00 60 1015.0
20260507040100 5 26 0.0 0.0 0.00 0.00 0.00 59 1015.1
20260507034614 6 26 0.0 9.7 0.00 0.00 0.00 56 1015.2
20260507033059 7 5 0.0 0.0 0.00 0.00 0.00 53 1015.3
20260507031559 7 360 3.2 11.3 0.00 0.00 0.00 54 1015.4
20260507024600 7 341 6.4 9.7 0.00 0.00 0.00 55 1015.4
20260507023057 8 355 8.0 12.9 0.00 0.00 0.00 55 1015.3
20260507021557 8 311 3.2 8.0 0.00 0.00 0.00 54 1015.2
20260507020055 8 290 0.0 0.0 0.00 0.00 0.00 53 1015.1
20260507014558 8 286 0.0 0.0 0.00 0.00 0.00 51 1015.0
20260507013101 8 283 0.0 0.0 0.00 0.00 0.00 50 1014.9
20260507011557 9 283 0.0 0.0 0.00 0.00 0.00 48 1014.9
20260507010053 9 281 0.0 4.8 0.00 0.00 0.00 48 1015.0
20260507004552 10 255 11.3 17.7 0.00 0.00 0.00 48 1015.0
20260507003052 10 265 12.9 20.9 0.00 0.00 0.00 47 1015.0
20260507001552 10 239 9.7 32.2 0.00 0.00 0.00 45 1015.0
20260507000054 11 249 17.7 27.4 0.00 0.00 0.00 44 1015.0
20260506234554 11 240 17.7 30.6 0.00 0.00 0.00 45 1015.1
20260506233048 10 259 17.7 30.6 0.00 0.00 0.00 47 1015.3
20260506231547 10 248 16.1 25.7 0.00 0.00 0.00 47 1015.3
20260506230047 10 242 20.9 33.8 0.00 0.00 0.00 43 1015.3
20260506224600 10 261 19.3 30.6 0.00 0.00 0.00 49 1015.4
20260506223044 10 248 24.1 37.0 0.00 0.00 0.00 46 1015.4
20260506221543 10 234 25.7 37.0 0.00 0.00 0.00 48 1015.4
20260506220041 10 268 16.1 25.7 0.00 0.00 0.00 47 1015.4
20260506214556 10 257 12.9 32.2 0.00 0.00 0.00 47 1015.6
20260506213043 10 269 17.7 30.6 0.00 0.00 0.00 46 1015.7
20260506211537 10 232 20.9 33.8 0.00 0.00 0.00 48 1015.9
20260506210040 9 230 17.7 35.4 0.00 0.00 0.00 47 1016.1
20260506204536 10 229 20.9 38.6 0.00 0.00 0.00 46 1016.2